Location: Codford Saint Peter
(51.1597°N, 2.0531°W)
Time: 22:40:11
(UTC+00:00)

Cosmos 1674 - Pass Details

Date: 18 September 2020
Orbit: 494 x 518 km, 82.5° (Epoch: 31 October)

Event Time Altitude Azimuth Distance (km) Brightness Sun altitude
Rises 20:37:08 0° 344° (NNW) 2,656 7.1 -21.9°
Reaches altitude 10° 20:39:21 10° 338° (NNW) 1,764 6.1 -22.2°
Maximum altitude 20:43:02 44° 266° (W) 724 3.7 -22.7°
Enters shadow 20:44:15 33° 219° (SW) 896 3.9 -22.8°
